Tracking 30298 objects as of 27-Apr-2025
HD Live streaming from Space Station
objects crossing your sky now

FENGYUN 1C DEB

Track FENGYUN 1C DEB now!
10-day predictions


NORAD ID: 31923
Int'l Code: 1999-025CMA
Perigee: 837.9 km
Apogee: 1,289.6 km
Inclination: 98.4 °
Period: 106.3 minutes
Semi major axis: 7434 km
RCS: 0.0082 m2 (small)
Launch date: May 10, 1999
Source: People's Republic of China (PRC)
Launch site: Taiyaun Space Center, China (TSC)

Note: This is SATELLITE DEBRIS
Your satellite tracking list
Your tracking list is empty




NASA's NSSDC Master Catalog

Two Line Element Set (TLE):
1 31923U 99025CMA 25109.30841669  .00002722  00000-0  30186-2 0  9990
2 31923  98.4238 237.3426 0303784 202.3863 156.3782 13.54273582604204
Source of the keplerian elements: AFSPC